Temp
65 66 65 65 65 64 68 75 73 75 75 75 74 74 74 74 74 73 73 73 72 66 62 63 67 64 72 68 75 75 75 75 75 73 73 73 73 73 73 73 73 73 73 72 72 73 73 72 72 72 73 73 74 70 66 64 63 62 62 62 64 62
65 65 65 66 67 66 66 71 65 66 67 69 72 74 69 66 72 64 70 66 63 65 64 62 63 70 65 67 68 75 76 76 75 74 74 73 73 74 73 73 73 73 73 73 74 69 66 68 71 71 72 75 71 65 64 63 62 61 62 62 63 63
65 66 65 65 67 66 67 65 65 64 66 72 70 69 65 67 62 62 62 63 65 62 64 63 64 68 69 74 70 75 75 75 75 75 75 75 74 74 73 72 73 73 72 72 68 63 63 61 61 69 70 68 65 63 63 62 61 61 62 63 63 69
66 66 66 65 66 65 64 64 63 64 65 64 63 65 64 63 61 62 63 62 62 63 63 62 69 70 69 64 64 70 73 72 74 72 74 70 70 70 71 70 70 71 67 66 63 62 61 59 60 61 62 61 60 61 61 61 60 61 62 63 64 71
66 64 64 64 67 63 64 63 63 63 64 62 62 62 62 62 63 63 62 62 62 63 62 61 60 63 64 64 60 60 62 61 62 61 70 60 61 64 63 63 63 64 62 63 63 63 62 62 63 63 62 61 61 59 59 60 60 60 60 61 63 72
64 64 65 62 66 65 66 62 62 62 62 62 63 62 61 61 61 62 63 64 62 60 62 62 60 60 63 62 60 60 60 60 60 60 63 63 62 62 62 62 63 63 61 63 64 64 63 63 63 63 62 61 61 59 60 58 58 59 61 61 63 71
64 63 64 64 64 64 62 63 62 63 62 63 62 62 61 60 61 61 62 64 61 59 60 61 61 60 62 61 62 59 59 60 60 61 61 62 63 63 61 60 61 61 61 63 64 63 64 63 63 62 61 60 60 61 62 61 61 61 61 60 64 70
64 64 62 62 65 63 62 63 64 67 64 66 63 61 60 61 63 62 62 62 62 59 59 60 61 60 61 60 61 62 60 60 61 60 61 62 62 60 61 60 61 61 62 62 62 64 63 63 63 61 60 61 61 62 62 60 60 60 60 61 63 67
65 67 62 63 65 61 63 63 63 63 62 71 60 60 61 63 62 61 63 62 63 59 58 60 60 60 60 62 61 62 59 59 61 60 62 60 61 60 60 59 60 61 61 62 62 62 63 64 62 61 60 61 61 61 61 61 61 60 60 60 61 64
65 61 64 62 64 62 61 63 63 65 62 67 59 62 63 62 60 61 62 62 62 59 60 59 60 59 60 60 61 61 60 60 60 60 61 62 59 59 59 58 60 61 62 62 62 62 62 61 61 61 59 61 60 60 59 60 60 61 61 61 60 63
63 67 60 63 64 63 62 61 63 64 64 63 63 62 63 63 61 60 62 61 62 64 59 59 59 59 60 60 61 60 60 59 60 59 61 62 60 59 60 59 60 59 61 61 61 61 60 60 59 61 60 61 61 60 61 61 60 61 61 61 60 59
64 65 64 62 65 63 63 62 65 63 63 61 62 61 62 63 63 59 61 60 60 61 62 59 59 61 61 60 60 59 58 59 59 59 61 60 60 59 61 61 61 62 60 60 60 60 62 59 58 60 61 61 60 61 61 60 60 60 60 60 60 59
63 63 62 65 64 62 61 64 64 63 60 66 62 62 61 61 60 60 61 61 60 62 62 60 59 59 61 59 59 59 58 59 58 60 60 60 61 60 60 59 60 61 60 61 60 61 62 60 59 59 60 61 60 60 61 60 60 60 60 60 60 58
63 63 65 61 64 62 62 62 62 61 64 62 61 62 63 60 62 61 61 60 60 63 61 59 59 58 59 58 58 59 59 59 58 58 59 59 59 59 59 59 59 59 62 60 58 59 58 59 59 58 59 59 59 58 58 60 59 59 59 59 58 57
65 61 66 62 66 63 64 62 63 62 61 62 64 62 59 62 61 62 62 60 60 62 60 60 60 58 57 57 58 59 58 58 59 59 59 59 59 59 58 59 57 58 58 57 58 60 59 58 57 59 59 59 58 59 58 58 59 59 59 57 59 59
63 62 61 62 62 61 62 62 61 66 60 60 62 61 61 62 63 61 62 61 60 62 60 60 60 57 58 57 58 59 59 57 59 58 59 58 58 59 58 58 58 57 55 58 58 59 57 58 57 58 59 58 57 58 56 57 58 58 58 58 58 58
61 62 61 62 60 63 63 64 63 60 61 61 61 62 61 61 62 62 60 60 59 62 60 60 60 58 58 58 58 59 58 58 58 58 57 57 58 59 57 60 58 57 56 55 57 58 58 57 58 58 58 58 57 57 55 57 58 57 58 57 57 58
60 61 60 61 64 62 60 61 61 60 64 62 62 60 60 60 62 60 59 59 59 62 60 59 59 58 57 58 57 60 59 57 58 57 57 56 57 58 57 56 56 55 57 55 55 56 56 56 59 59 58 58 56 54 55 55 57 58 55 56 57 57
61 61 60 61 63 62 61 60 59 61 60 60 60 59 59 59 60 60 59 60 60 60 62 59 59 59 58 58 57 58 58 58 58 57 56 56 57 58 57 55 55 55 57 57 57 56 55 54 57 57 57 57 55 55 54 56 59 54 55 54 57 59
60 61 60 61 60 61 60 60 60 60 61 61 60 63 60 60 59 59 62 61 60 59 61 61 58 58 58 59 59 58 57 57 57 58 57 57 57 56 55 55 55 58 55 57 57 56 55 54 53 52 55 55 54 54 56 57 58 55 55 54 56 57
60 59 61 61 59 60 60 59 59 58 58 59 60 60 61 60 60 60 61 61 61 61 59 59 62 58 56 62 59 57 57 57 56 57 57 57 56 56 57 56 56 56 56 54 55 55 55 54 52 50 51 50 51 54 56 55 58 54 55 54 55 56
58 59 60 60 60 60 57 59 58 59 59 58 59 59 60 59 61 62 60 60 61 59 59 60 62 60 58 58 58 57 56 57 56 56 58 57 57 59 55 54 55 54 54 55 54 55 55 54 50 49 47 49 49 50 53 53 58 53 54 55 55 55
59 59 59 60 59 59 59 60 59 59 58 58 59 58 60 61 63 62 59 59 60 59 60 60 60 61 58 59 58 57 57 56 56 58 56 56 55 54 55 55 54 55 53 53 54 56 54 53 51 51 50 47 46 47 51 46 52 52 52 54 54 55
61 59 60 60 62 59 61 60 60 59 59 60 63 63 61 60 61 60 60 60 59 58 59 60 61 62 61 59 57 57 57 55 58 58 58 57 54 55 54 55 54 55 54 52 51 51 55 52 51 52 47 47 46 45 42 45 49 50 50 53 54 55
60 60 60 62 62 60 61 61 59 60 57 59 60 54 59 59 58 59 61 59 62 60 59 61 60 60 60 58 57 56 56 57 59 58 58 57 54 55 57 56 54 53 55 55 52 49 50 53 52 54 51 45 44 43 44 46 47 44 48 51 53 54
60 60 61 60 61 60 60 58 60 61 58 58 57 56 57 57 57 57 59 58 60 60 60 59 59 60 61 61 57 57 56 58 58 58 58 57 55 55 54 56 56 57 55 52 54 48 50 52 54 54 49 49 51 44 44 47 46 42 49 51 52 54
61 60 60 60 60 62 58 56 58 57 56 54 55 54 55 56 56 57 57 59 60 58 59 59 59 58 60 61 58 57 57 58 58 57 58 55 56 55 55 55 56 54 54 55 53 52 50 50 48 50 52 51 51 50 48 47 44 45 44 47 49 53
61 62 61 60 58 61 59 56 55 55 57 55 56 58 58 59 58 59 57 59 58 59 59 60 60 60 59 61 59 57 58 57 57 58 59 56 57 56 55 55 56 55 54 54 53 52 50 48 51 51 52 51 51 51 49 48 49 47 44 44 47 50
60 61 60 60 60 58 61 58 58 57 57 60 58 59 59 60 61 59 58 58 57 59 59 58 59 61 61 59 60 61 58 57 56 58 58 56 56 55 56 55 53 54 53 54 53 51 52 50 47 50 49 48 47 47 47 48 48 49 47 44 44 47
60 60 60 59 61 59 59 61 57 56 57 58 58 60 58 56 57 58 58 58 58 58 58 59 59 59 59 59 60 59 58 57 57 57 59 56 56 56 55 54 54 54 54 53 52 52 52 51 50 49 50 49 48 46 44 44 44 45 45 45 43 45
60 60 60 59 59 59 58 58 58 58 57 58 59 58 57 59 58 57 58 59 57 57 58 59 58 58 58 59 59 59 57 57 57 58 57 56 57 57 55 54 53 54 54 54 52 53 56 54 52 50 48 48 50 48 49 47 46 46 46 44 44 45
59 59 59 59 59 59 58 58 58 58 58 58 58 60 58 58 59 59 58 57 57 57 58 58 58 57 58 59 59 58 58 57 57 55 57 55 55 54 54 54 54 54 54 53 52 55 55 54 50 49 49 48 49 48 47 47 48 48 47 46 46 45
60 58 59 59 59 59 58 58 59 59 59 59 58 58 59 58 57 57 57 57 56 56 56 57 57 59 58 58 59 57 56 56 57 56 57 55 55 54 54 55 54 54 53 53 53 54 55 55 51 49 51 49 49 48 50 48 48 49 48 48 48 45
61 59 59 58 59 59 58 58 58 59 60 59 59 59 59 58 58 57 57 56 57 57 57 58 58 57 60 59 58 59 59 57 56 55 56 54 54 54 56 55 55 54 53 53 53 54 56 53 50 49 49 49 49 49 49 50 49 48 49 48 47 45
61 60 59 59 59 59 59 58 58 58 59 59 59 59 59 60 59 58 57 57 57 56 57 58 57 59 58 57 58 57 57 56 56 56 56 56 57 55 54 55 54 53 54 54 54 55 55 53 53 52 50 49 52 50 50 50 49 51 50 50 49 48
63 62 61 61 60 60 60 59 58 58 59 60 61 61 60 61 59 58 59 58 58 56 57 57 58 57 58 59 58 57 57 57 56 55 55 54 54 54 55 55 53 53 54 57 55 55 55 53 53 51 51 50 51 51 51 51 50 50 50 51 49 48
63 63 62 62 61 61 60 59 59 59 59 59 59 59 59 58 59 59 59 58 58 59 58 57 59 59 59 58 57 57 57 57 56 56 55 55 55 55 54 54 54 53 54 54 55 55 54 52 51 50 49 52 53 52 52 52 51 51 51 50 50 49
MSLP
1013.90 1013.90 1013.86 1013.78 1013.78 1013.78 1013.74 1013.62 1013.70 1013.74 1013.74 1013.74 1013.78 1013.74 1013.70 1013.62 1013.62 1013.58 1013.54 1013.46 1013.46 1013.58 1013.58 1013.46 1013.22 1013.10 1013.02 1012.90 1012.74 1012.62 1012.58 1012.50 1012.42 1012.54 1012.46 1012.38 1012.30 1012.30 1012.22 1012.06 1011.86 1011.82 1011.66 1011.46 1011.30 1011.14 1011.06 1010.98 1010.78 1010.70 1010.58 1010.42 1010.30 1010.26 1010.22 1010.22 1010.18 1010.22 1010.14 1010.02 1009.86 1009.78
1013.86 1013.90 1013.82 1013.82 1013.82 1013.82 1013.82 1013.70 1013.78 1013.74 1013.78 1013.78 1013.78 1013.74 1013.70 1013.66 1013.62 1013.66 1013.62 1013.62 1013.58 1013.58 1013.50 1013.46 1013.30 1013.10 1013.10 1012.94 1012.78 1012.62 1012.50 1012.38 1012.38 1012.42 1012.42 1012.34 1012.26 1012.22 1012.14 1011.98 1011.86 1011.70 1011.62 1011.42 1011.26 1011.18 1011.14 1010.98 1010.74 1010.62 1010.42 1010.18 1010.10 1010.10 1010.06 1010.10 1010.10 1010.14 1010.10 1009.90 1009.66 1009.54
1013.78 1013.74 1013.78 1013.86 1013.82 1013.82 1013.82 1013.82 1013.78 1013.78 1013.74 1013.74 1013.82 1013.78 1013.74 1013.74 1013.74 1013.74 1013.82 1013.66 1013.62 1013.58 1013.46 1013.42 1013.38 1013.34 1012.98 1012.86 1012.70 1012.62 1012.50 1012.46 1012.38 1012.34 1012.30 1012.26 1012.22 1012.18 1012.10 1012.02 1011.82 1011.70 1011.62 1011.50 1011.42 1011.34 1011.22 1011.06 1010.90 1010.66 1010.42 1010.30 1010.22 1010.10 1010.10 1010.06 1010.06 1010.10 1009.90 1009.62 1009.46 1009.18
1013.58 1013.62 1013.74 1013.82 1013.82 1013.82 1013.78 1013.82 1013.82 1013.74 1013.74 1013.78 1013.86 1013.86 1013.74 1013.86 1013.78 1013.70 1013.66 1013.58 1013.54 1013.46 1013.46 1013.46 1013.34 1013.22 1013.02 1013.02 1012.94 1012.70 1012.58 1012.62 1012.42 1012.46 1012.42 1012.38 1012.38 1012.26 1012.14 1012.02 1011.86 1011.74 1011.74 1011.66 1011.54 1011.38 1011.26 1011.14 1010.94 1010.70 1010.54 1010.46 1010.34 1010.26 1010.18 1010.06 1009.98 1009.82 1009.58 1009.38 1009.22 1008.86
1013.30 1013.54 1013.62 1013.58 1013.50 1013.74 1013.66 1013.66 1013.66 1013.58 1013.58 1013.74 1013.82 1013.78 1013.86 1013.82 1013.74 1013.70 1013.62 1013.54 1013.50 1013.46 1013.50 1013.50 1013.42 1013.30 1013.22 1013.14 1013.06 1012.82 1012.74 1012.82 1012.62 1012.66 1012.54 1012.58 1012.46 1012.38 1012.26 1012.18 1012.10 1011.94 1011.94 1011.74 1011.62 1011.46 1011.38 1011.18 1010.90 1010.70 1010.62 1010.42 1010.30 1010.18 1010.10 1009.94 1009.86 1009.74 1009.58 1009.38 1009.10 1008.74
1013.34 1013.42 1013.38 1013.42 1013.46 1013.42 1013.46 1013.66 1013.58 1013.54 1013.62 1013.66 1013.62 1013.74 1013.74 1013.78 1013.82 1013.66 1013.58 1013.46 1013.50 1013.50 1013.46 1013.46 1013.38 1013.42 1013.30 1013.22 1013.18 1012.98 1012.82 1012.82 1012.74 1012.66 1012.62 1012.58 1012.54 1012.46 1012.42 1012.34 1012.18 1012.10 1012.02 1011.74 1011.62 1011.50 1011.34 1011.22 1011.06 1010.82 1010.62 1010.46 1010.34 1010.18 1010.02 1009.94 1009.86 1009.70 1009.50 1009.34 1009.14 1008.78
1013.34 1013.38 1013.34 1013.46 1013.34 1013.42 1013.42 1013.50 1013.50 1013.54 1013.58 1013.54 1013.54 1013.70 1013.78 1013.86 1013.74 1013.66 1013.54 1013.42 1013.54 1013.58 1013.46 1013.42 1013.50 1013.46 1013.38 1013.38 1013.22 1013.22 1012.98 1012.86 1012.82 1012.70 1012.70 1012.70 1012.66 1012.62 1012.58 1012.46 1012.22 1012.14 1011.98 1011.82 1011.62 1011.46 1011.34 1011.18 1010.98 1010.94 1010.70 1010.58 1010.30 1010.14 1009.94 1009.90 1009.78 1009.54 1009.38 1009.30 1009.06 1008.74
1013.22 1013.30 1013.42 1013.38 1013.30 1013.46 1013.42 1013.38 1013.50 1013.46 1013.38 1013.42 1013.50 1013.66 1013.82 1013.74 1013.62 1013.62 1013.58 1013.46 1013.50 1013.50 1013.50 1013.50 1013.58 1013.58 1013.54 1013.46 1013.38 1013.30 1013.14 1012.90 1012.82 1012.86 1012.78 1012.74 1012.78 1012.78 1012.62 1012.54 1012.34 1012.14 1011.98 1011.82 1011.74 1011.54 1011.42 1011.26 1011.06 1010.94 1010.86 1010.66 1010.42 1010.22 1010.10 1009.94 1009.86 1009.66 1009.46 1009.30 1009.06 1008.78
1013.26 1013.30 1013.30 1013.22 1013.34 1013.30 1013.34 1013.30 1013.46 1013.54 1013.46 1013.34 1013.50 1013.58 1013.66 1013.62 1013.62 1013.66 1013.58 1013.46 1013.46 1013.58 1013.58 1013.58 1013.54 1013.62 1013.50 1013.46 1013.46 1013.30 1013.22 1013.10 1012.94 1012.98 1012.78 1012.82 1012.86 1012.94 1012.70 1012.58 1012.42 1012.22 1012.02 1011.90 1011.78 1011.66 1011.58 1011.34 1011.18 1011.02 1010.94 1010.70 1010.58 1010.30 1010.18 1009.94 1009.74 1009.58 1009.46 1009.34 1009.14 1008.90
1013.22 1013.26 1013.34 1013.30 1013.30 1013.34 1013.46 1013.54 1013.46 1013.38 1013.34 1013.34 1013.46 1013.58 1013.54 1013.58 1013.54 1013.74 1013.58 1013.46 1013.50 1013.54 1013.58 1013.58 1013.50 1013.54 1013.54 1013.58 1013.50 1013.38 1013.34 1013.38 1013.22 1012.98 1012.78 1012.90 1012.98 1012.94 1012.78 1012.54 1012.46 1012.30 1012.06 1011.94 1011.82 1011.70 1011.70 1011.50 1011.26 1011.06 1010.94 1010.70 1010.62 1010.42 1010.22 1010.02 1009.90 1009.74 1009.54 1009.38 1009.26 1009.02
1013.22 1013.18 1013.34 1013.30 1013.34 1013.46 1013.42 1013.50 1013.46 1013.30 1013.30 1013.46 1013.38 1013.42 1013.50 1013.42 1013.50 1013.78 1013.58 1013.50 1013.50 1013.54 1013.58 1013.54 1013.54 1013.54 1013.54 1013.62 1013.62 1013.58 1013.50 1013.50 1013.26 1013.14 1012.94 1012.90 1012.90 1012.94 1012.74 1012.62 1012.50 1012.38 1012.10 1011.98 1011.82 1011.78 1011.74 1011.54 1011.38 1011.14 1010.94 1010.78 1010.66 1010.42 1010.22 1010.06 1009.94 1009.78 1009.62 1009.38 1009.22 1009.14
1013.14 1013.22 1013.34 1013.38 1013.30 1013.30 1013.50 1013.42 1013.34 1013.30 1013.34 1013.38 1013.30 1013.38 1013.34 1013.42 1013.54 1013.70 1013.58 1013.50 1013.46 1013.58 1013.50 1013.54 1013.54 1013.54 1013.58 1013.74 1013.74 1013.70 1013.66 1013.50 1013.34 1013.14 1012.98 1012.86 1012.82 1012.86 1012.74 1012.62 1012.42 1012.30 1012.10 1011.98 1011.86 1011.82 1011.70 1011.58 1011.46 1011.22 1010.98 1010.82 1010.66 1010.50 1010.38 1010.18 1010.06 1009.86 1009.62 1009.42 1009.30 1009.22
1013.10 1013.22 1013.30 1013.34 1013.34 1013.46 1013.62 1013.38 1013.34 1013.46 1013.38 1013.34 1013.34 1013.34 1013.30 1013.50 1013.66 1013.66 1013.66 1013.46 1013.46 1013.50 1013.42 1013.42 1013.42 1013.50 1013.54 1013.70 1013.66 1013.66 1013.66 1013.54 1013.30 1013.14 1012.98 1012.86 1012.74 1012.78 1012.70 1012.66 1012.50 1012.30 1012.18 1012.06 1011.90 1011.86 1011.70 1011.62 1011.50 1011.30 1011.06 1010.90 1010.78 1010.66 1010.50 1010.30 1010.10 1009.90 1009.74 1009.54 1009.42 1009.38
1013.26 1013.26 1013.22 1013.34 1013.30 1013.46 1013.46 1013.42 1013.34 1013.38 1013.26 1013.30 1013.18 1013.22 1013.34 1013.58 1013.62 1013.62 1013.50 1013.42 1013.46 1013.46 1013.42 1013.34 1013.30 1013.42 1013.42 1013.54 1013.54 1013.54 1013.54 1013.38 1013.22 1013.10 1012.94 1012.86 1012.78 1012.86 1012.82 1012.74 1012.62 1012.46 1012.30 1012.22 1012.14 1012.02 1011.86 1011.78 1011.58 1011.38 1011.14 1011.02 1010.90 1010.82 1010.62 1010.38 1010.22 1010.10 1009.90 1009.70 1009.58 1009.50
1013.22 1013.26 1013.26 1013.34 1013.30 1013.42 1013.38 1013.26 1013.26 1013.26 1013.18 1013.18 1013.06 1013.10 1013.38 1013.38 1013.54 1013.46 1013.42 1013.42 1013.42 1013.42 1013.34 1013.30 1013.22 1013.26 1013.34 1013.38 1013.46 1013.42 1013.42 1013.30 1013.18 1013.06 1012.94 1012.86 1012.82 1012.78 1012.82 1012.78 1012.66 1012.58 1012.42 1012.26 1012.22 1012.02 1011.94 1011.90 1011.74 1011.54 1011.30 1011.10 1011.02 1010.86 1010.70 1010.54 1010.34 1010.14 1010.02 1009.86 1009.62 1009.50
1013.22 1013.34 1013.34 1013.30 1013.26 1013.34 1013.34 1013.26 1013.22 1013.18 1013.18 1013.18 1013.02 1013.18 1013.26 1013.30 1013.38 1013.42 1013.34 1013.38 1013.38 1013.34 1013.30 1013.26 1013.14 1013.10 1013.22 1013.38 1013.42 1013.38 1013.34 1013.26 1013.14 1013.02 1012.94 1012.86 1012.82 1012.82 1012.82 1012.82 1012.58 1012.58 1012.50 1012.30 1012.26 1012.14 1011.98 1011.94 1011.78 1011.58 1011.30 1011.14 1011.06 1010.90 1010.78 1010.62 1010.42 1010.26 1010.14 1009.94 1009.74 1009.62
1013.30 1013.30 1013.34 1013.30 1013.30 1013.30 1013.26 1013.30 1013.18 1013.18 1013.14 1013.14 1013.06 1013.06 1013.22 1013.30 1013.38 1013.38 1013.34 1013.42 1013.42 1013.34 1013.26 1013.22 1013.10 1013.14 1013.22 1013.34 1013.38 1013.34 1013.22 1013.18 1013.06 1012.98 1012.98 1012.90 1012.82 1012.74 1012.86 1012.86 1012.58 1012.46 1012.50 1012.38 1012.30 1012.22 1012.06 1011.94 1011.78 1011.54 1011.34 1011.14 1011.02 1010.98 1010.82 1010.70 1010.54 1010.38 1010.18 1009.98 1009.82 1009.62
1013.18 1013.14 1013.26 1013.22 1013.22 1013.22 1013.22 1013.22 1013.18 1013.14 1013.14 1013.10 1013.06 1013.18 1013.22 1013.42 1013.42 1013.42 1013.38 1013.46 1013.42 1013.26 1013.22 1013.18 1013.10 1013.14 1013.18 1013.26 1013.30 1013.26 1013.14 1013.10 1012.98 1012.94 1012.94 1012.90 1012.78 1012.66 1012.78 1012.86 1012.66 1012.46 1012.42 1012.42 1012.30 1012.26 1012.14 1012.02 1011.78 1011.58 1011.38 1011.18 1011.02 1010.98 1010.82 1010.70 1010.62 1010.38 1010.26 1010.10 1009.90 1009.66
1013.14 1013.18 1013.26 1013.18 1013.14 1013.18 1013.26 1013.26 1013.22 1013.30 1013.30 1013.22 1013.22 1013.34 1013.34 1013.38 1013.38 1013.42 1013.38 1013.38 1013.30 1013.18 1013.10 1013.14 1013.10 1013.10 1013.10 1013.18 1013.18 1013.14 1013.10 1012.98 1012.94 1012.94 1012.94 1012.90 1012.78 1012.66 1012.70 1012.74 1012.62 1012.54 1012.34 1012.26 1012.22 1012.18 1012.10 1011.98 1011.78 1011.66 1011.42 1011.18 1011.06 1010.90 1010.86 1010.70 1010.58 1010.50 1010.34 1010.18 1009.98 1009.70
1013.18 1013.14 1013.22 1013.18 1013.22 1013.34 1013.42 1013.50 1013.54 1013.42 1013.42 1013.34 1013.30 1013.30 1013.38 1013.18 1013.30 1013.30 1013.26 1013.22 1013.14 1013.10 1013.06 1013.06 1013.06 1013.02 1013.10 1013.10 1013.06 1013.02 1013.02 1012.94 1012.90 1012.90 1012.82 1012.82 1012.74 1012.66 1012.78 1012.62 1012.46 1012.46 1012.34 1012.18 1012.02 1012.02 1011.94 1011.82 1011.78 1011.66 1011.42 1011.22 1011.02 1010.86 1010.90 1010.74 1010.58 1010.58 1010.42 1010.18 1010.02 1009.74
1013.18 1013.22 1013.22 1013.34 1013.46 1013.50 1013.62 1013.66 1013.66 1013.70 1013.66 1013.42 1013.22 1013.14 1013.30 1013.26 1013.10 1013.10 1013.10 1013.10 1013.02 1012.98 1013.02 1012.98 1012.90 1012.98 1013.06 1012.98 1012.94 1012.90 1012.94 1012.94 1012.86 1012.82 1012.70 1012.70 1012.66 1012.62 1012.58 1012.46 1012.38 1012.34 1012.30 1012.22 1012.06 1011.94 1011.86 1011.74 1011.70 1011.74 1011.58 1011.38 1011.14 1010.90 1010.86 1010.78 1010.66 1010.58 1010.42 1010.22 1009.98 1009.74
1013.14 1013.22 1013.22 1013.22 1013.34 1013.50 1013.54 1013.54 1013.54 1013.50 1013.38 1013.34 1013.18 1013.22 1013.34 1013.22 1013.06 1013.02 1013.10 1013.02 1012.90 1012.86 1012.86 1012.74 1012.74 1012.86 1012.90 1012.90 1012.90 1012.90 1012.90 1012.86 1012.82 1012.66 1012.58 1012.62 1012.54 1012.46 1012.46 1012.38 1012.30 1012.22 1012.26 1012.22 1012.06 1011.94 1011.86 1011.66 1011.70 1011.86 1011.82 1011.66 1011.42 1011.18 1010.86 1010.86 1010.70 1010.62 1010.46 1010.22 1010.06 1009.86
1013.06 1013.10 1013.14 1013.18 1013.30 1013.46 1013.34 1013.34 1013.38 1013.30 1013.30 1013.30 1013.14 1012.98 1012.90 1012.90 1012.86 1012.90 1012.98 1012.90 1012.82 1012.78 1012.74 1012.70 1012.70 1012.78 1012.74 1012.74 1012.78 1012.78 1012.82 1012.78 1012.70 1012.58 1012.58 1012.50 1012.46 1012.46 1012.42 1012.38 1012.30 1012.22 1012.22 1012.14 1012.10 1011.90 1011.82 1011.90 1011.94 1011.74 1011.46 1011.62 1011.62 1011.98 1011.18 1011.06 1010.98 1010.70 1010.54 1010.30 1010.14 1009.86
1012.90 1012.98 1013.02 1013.10 1013.18 1013.18 1013.18 1013.14 1013.22 1013.14 1013.10 1013.10 1013.14 1012.94 1012.98 1013.02 1013.06 1013.06 1012.98 1012.94 1012.86 1012.86 1012.70 1012.70 1012.62 1012.66 1012.54 1012.62 1012.66 1012.66 1012.66 1012.70 1012.42 1012.42 1012.50 1012.50 1012.46 1012.46 1012.30 1012.30 1012.26 1012.22 1012.22 1012.22 1012.26 1012.10 1011.86 1011.94 1011.86 1011.58 1011.70 1011.82 1011.78 1011.70 1011.62 1011.34 1011.34 1010.78 1010.62 1010.26 1010.10 1009.82
1012.78 1012.86 1012.90 1012.90 1013.02 1013.06 1013.22 1013.26 1013.34 1013.34 1013.26 1013.14 1013.10 1013.18 1013.14 1013.14 1013.02 1012.98 1012.86 1012.86 1012.70 1012.66 1012.62 1012.62 1012.54 1012.54 1012.54 1012.50 1012.58 1012.58 1012.62 1012.42 1012.34 1012.26 1012.38 1012.42 1012.46 1012.34 1012.22 1012.22 1012.26 1012.14 1012.14 1012.22 1012.26 1012.30 1012.02 1011.94 1011.98 1011.86 1011.82 1011.74 1011.78 1011.66 1012.18 1011.90 1011.78 1010.82 1010.58 1010.38 1010.10 1009.90
1012.62 1012.74 1012.78 1012.82 1012.86 1012.98 1013.14 1013.26 1013.38 1013.50 1013.62 1013.54 1013.58 1013.38 1013.34 1013.18 1012.98 1012.98 1012.86 1012.62 1012.54 1012.50 1012.46 1012.46 1012.46 1012.38 1012.34 1012.30 1012.42 1012.50 1012.42 1012.34 1012.26 1012.26 1012.38 1012.38 1012.42 1012.30 1012.18 1012.14 1012.22 1012.14 1012.06 1012.18 1012.18 1012.30 1012.18 1011.98 1011.98 1012.06 1011.82 1011.94 1012.02 1012.26 1012.06 1011.70 1011.82 1011.58 1010.78 1010.34 1010.18 1009.90
1012.46 1012.58 1012.58 1012.62 1012.70 1012.82 1012.98 1013.18 1013.22 1013.34 1013.38 1013.38 1013.30 1013.14 1012.98 1012.94 1012.82 1012.58 1012.54 1012.50 1012.38 1012.38 1012.42 1012.46 1012.30 1012.22 1012.18 1012.14 1012.22 1012.30 1012.26 1012.26 1012.30 1012.26 1012.22 1012.34 1012.30 1012.22 1012.26 1012.22 1012.14 1012.06 1012.10 1012.18 1012.26 1012.30 1012.22 1012.18 1012.10 1011.98 1011.98 1012.02 1011.94 1011.74 1011.86 1011.94 1011.78 1011.62 1011.42 1010.74 1010.46 1009.98
1012.26 1012.30 1012.42 1012.42 1012.58 1012.62 1012.82 1012.98 1013.14 1013.18 1013.22 1013.26 1013.22 1012.98 1012.74 1012.58 1012.58 1012.54 1012.54 1012.46 1012.38 1012.26 1012.18 1012.18 1012.14 1012.06 1012.14 1012.14 1012.18 1012.26 1012.26 1012.22 1012.14 1012.18 1012.22 1012.26 1012.22 1012.22 1012.18 1012.10 1012.10 1012.14 1012.06 1012.14 1012.10 1012.18 1012.10 1012.14 1012.18 1012.02 1011.94 1011.78 1011.70 1011.58 1011.78 1011.74 1011.66 1011.78 1011.86 1011.54 1010.70 1010.22
1012.06 1012.14 1012.26 1012.30 1012.42 1012.54 1012.58 1012.78 1012.94 1013.02 1013.06 1012.94 1012.90 1012.74 1012.58 1012.58 1012.50 1012.54 1012.58 1012.38 1012.34 1012.22 1012.22 1012.22 1012.14 1012.06 1012.06 1012.10 1012.14 1012.10 1012.02 1012.10 1012.18 1012.18 1012.18 1012.18 1012.18 1012.14 1012.10 1012.10 1012.06 1011.98 1011.98 1012.02 1011.94 1011.98 1011.98 1011.98 1012.10 1012.02 1011.86 1011.86 1011.86 1011.78 1011.62 1011.42 1011.38 1011.54 1011.62 1011.62 1011.18 1010.66
1012.06 1012.06 1012.14 1012.22 1012.30 1012.42 1012.46 1012.58 1012.82 1012.90 1012.94 1012.82 1012.70 1012.62 1012.58 1012.62 1012.58 1012.50 1012.50 1012.34 1012.26 1012.26 1012.14 1012.10 1012.10 1012.10 1012.06 1011.98 1011.98 1011.98 1011.98 1012.06 1012.10 1012.10 1012.10 1012.10 1012.10 1012.06 1012.06 1012.02 1011.98 1011.94 1011.94 1011.82 1011.82 1011.86 1011.82 1011.86 1011.86 1011.90 1011.82 1011.82 1011.74 1011.78 1011.58 1011.54 1011.46 1011.58 1011.38 1011.46 1011.54 1011.26
1011.86 1011.94 1012.02 1012.10 1012.22 1012.34 1012.38 1012.46 1012.62 1012.70 1012.74 1012.74 1012.58 1012.58 1012.66 1012.54 1012.42 1012.54 1012.50 1012.30 1012.26 1012.18 1012.18 1012.06 1012.02 1012.02 1011.98 1011.86 1011.86 1011.86 1011.90 1011.90 1011.94 1011.90 1011.94 1012.02 1012.02 1012.02 1011.98 1011.94 1011.90 1011.90 1011.82 1011.78 1011.74 1011.78 1011.70 1011.74 1011.78 1011.78 1011.78 1011.78 1011.66 1011.82 1011.70 1011.74 1011.58 1011.50 1011.70 1011.62 1011.42 1011.06
1011.86 1011.86 1011.90 1011.94 1012.06 1012.14 1012.26 1012.30 1012.38 1012.46 1012.54 1012.50 1012.50 1012.50 1012.54 1012.54 1012.38 1012.38 1012.38 1012.30 1012.18 1012.22 1012.06 1011.94 1011.86 1011.86 1011.82 1011.74 1011.66 1011.70 1011.78 1011.78 1011.82 1011.82 1011.86 1011.86 1011.94 1011.94 1011.90 1011.86 1011.82 1011.82 1011.78 1011.74 1011.78 1011.78 1011.66 1011.66 1011.70 1011.70 1011.74 1011.82 1011.62 1011.70 1011.70 1011.54 1011.42 1011.38 1011.46 1011.34 1011.46 1011.18
1011.74 1011.74 1011.74 1011.78 1011.86 1011.94 1012.06 1012.14 1012.22 1012.30 1012.26 1012.26 1012.30 1012.30 1012.30 1012.38 1012.18 1012.14 1012.02 1012.02 1011.98 1011.94 1011.82 1011.86 1011.74 1011.74 1011.62 1011.54 1011.50 1011.58 1011.66 1011.66 1011.66 1011.66 1011.70 1011.78 1011.78 1011.82 1011.78 1011.74 1011.74 1011.74 1011.74 1011.70 1011.66 1011.62 1011.58 1011.58 1011.62 1011.54 1011.54 1011.54 1011.54 1011.50 1011.26 1011.38 1011.46 1011.30 1011.22 1011.30 1011.18 1011.18
1011.42 1011.54 1011.62 1011.66 1011.66 1011.74 1011.78 1011.82 1011.98 1012.02 1012.06 1012.02 1012.10 1012.10 1012.06 1012.06 1011.90 1011.82 1011.74 1011.74 1011.74 1011.66 1011.66 1011.62 1011.54 1011.54 1011.34 1011.30 1011.34 1011.38 1011.42 1011.46 1011.46 1011.50 1011.58 1011.62 1011.66 1011.66 1011.62 1011.62 1011.62 1011.62 1011.62 1011.58 1011.58 1011.54 1011.50 1011.50 1011.50 1011.46 1011.50 1011.42 1011.30 1011.18 1011.14 1011.18 1011.14 1011.14 1011.02 1010.86 1010.78 1010.90
1011.30 1011.42 1011.50 1011.46 1011.58 1011.58 1011.58 1011.62 1011.70 1011.78 1011.82 1011.86 1011.90 1011.90 1011.86 1011.70 1011.62 1011.62 1011.58 1011.54 1011.50 1011.54 1011.50 1011.38 1011.34 1011.14 1011.14 1011.18 1011.18 1011.26 1011.26 1011.34 1011.42 1011.46 1011.50 1011.54 1011.58 1011.58 1011.54 1011.50 1011.54 1011.54 1011.50 1011.46 1011.46 1011.42 1011.46 1011.42 1011.38 1011.42 1011.42 1011.30 1011.10 1011.02 1010.98 1011.02 1011.10 1010.86 1010.86 1010.74 1010.74 1010.62
1010.94 1011.02 1011.18 1011.30 1011.34 1011.34 1011.38 1011.42 1011.46 1011.58 1011.58 1011.66 1011.66 1011.66 1011.62 1011.50 1011.46 1011.46 1011.38 1011.38 1011.30 1011.26 1011.22 1011.18 1011.10 1011.10 1011.02 1010.98 1011.02 1011.10 1011.14 1011.22 1011.26 1011.30 1011.38 1011.42 1011.50 1011.46 1011.42 1011.46 1011.46 1011.46 1011.42 1011.38 1011.42 1011.38 1011.38 1011.38 1011.34 1011.34 1011.26 1011.22 1011.10 1010.98 1010.90 1010.90 1010.82 1010.70 1010.66 1010.62 1010.50 1010.42
1010.82 1010.86 1010.94 1010.98 1010.98 1011.10 1011.18 1011.30 1011.30 1011.34 1011.38 1011.46 1011.54 1011.50 1011.42 1011.30 1011.22 1011.14 1011.22 1011.18 1011.14 1011.02 1010.98 1010.94 1010.90 1010.86 1010.86 1010.86 1010.86 1010.90 1011.02 1011.06 1011.14 1011.18 1011.22 1011.26 1011.34 1011.34 1011.34 1011.38 1011.38 1011.38 1011.34 1011.34 1011.38 1011.30 1011.26 1011.26 1011.26 1011.30 1011.22 1011.14 1011.06 1011.02 1010.86 1010.78 1010.62 1010.62 1010.62 1010.50 1010.34 1010.22
Wind_Speed
5 5 5 5 4 4 4 9 7 8 8 8 7 7 5 3 3 4 4 7 6 3 4 4 6 3 7 4 8 9 8 9 10 7 10 12 12 12 12 14 16 14 14 15 15 17 15 14 15 14 15 13 14 8 7 6 5 4 5 6 5 6
6 6 6 5 3 4 3 5 4 4 4 4 4 5 2 1 4 1 4 4 3 1 2 4 6 5 3 4 3 8 8 8 9 8 9 11 12 13 13 13 14 14 12 14 15 8 6 9 13 13 14 13 7 6 6 6 5 5 5 6 6 7
7 7 7 5 4 4 4 4 4 4 3 5 3 3 2 1 0 1 1 2 1 1 2 2 2 6 2 7 5 9 9 10 9 8 9 10 11 12 12 11 10 11 11 12 7 6 6 5 6 10 10 6 5 5 5 6 5 4 7 7 7 9
7 8 7 6 5 5 5 4 3 4 4 3 1 3 2 1 1 1 2 2 3 3 4 5 6 6 7 4 5 5 7 8 6 7 10 7 7 8 10 8 11 11 7 5 6 6 6 6 5 5 6 6 4 5 5 6 6 6 7 6 7 10
4 3 4 4 3 4 5 6 6 5 5 3 3 3 3 2 1 1 1 2 2 3 3 4 3 5 6 5 5 4 4 4 3 3 6 3 3 4 4 7 6 6 6 6 7 7 6 7 7 7 6 6 4 3 4 5 5 5 6 6 6 12
3 3 2 3 4 2 4 5 5 2 2 2 5 5 3 2 2 2 1 1 3 3 4 4 4 4 5 6 5 5 3 3 4 4 3 6 6 6 6 5 5 6 6 6 6 7 6 6 7 7 6 5 5 4 4 5 5 5 5 6 6 13
4 4 2 0 1 1 2 3 2 5 5 4 6 5 4 2 2 2 2 1 5 2 3 4 5 5 6 6 6 5 4 3 4 4 3 6 6 6 6 5 5 5 5 6 7 6 7 7 6 6 6 5 4 5 7 7 6 7 6 6 7 13
2 1 2 2 1 1 2 2 1 1 5 5 3 5 5 4 3 3 2 2 3 2 3 5 4 4 4 3 5 4 5 3 3 5 4 6 5 5 6 5 5 4 4 5 6 7 7 6 7 5 5 5 6 6 6 6 5 5 5 6 6 9
3 1 2 1 1 2 1 3 3 1 3 4 3 3 5 4 4 3 2 3 3 2 2 5 4 3 4 6 4 5 4 3 4 4 4 5 5 5 5 4 5 4 4 5 6 6 6 7 6 5 5 5 5 6 6 7 7 7 6 5 6 7
2 2 1 2 1 1 2 0 4 4 5 1 3 5 5 4 3 1 2 3 3 2 2 3 3 3 4 5 5 5 4 6 4 3 6 6 5 3 5 4 5 5 4 5 6 6 5 6 6 5 5 5 6 5 4 5 6 6 7 6 5 6
3 2 2 2 0 0 1 1 4 4 4 3 2 3 4 5 3 2 2 3 3 2 2 1 3 3 4 5 5 5 5 4 5 4 5 5 3 3 5 4 5 6 5 5 6 5 5 5 5 5 5 6 6 6 7 7 6 6 6 6 6 5
4 2 1 1 1 3 1 3 4 3 4 3 2 4 3 4 3 3 2 2 4 1 3 1 1 2 5 5 5 5 4 3 3 4 3 4 4 3 4 4 5 4 4 4 6 5 4 4 5 6 5 6 6 7 7 6 6 6 5 5 5 5
3 2 1 1 0 1 1 2 2 1 3 2 3 1 2 2 4 3 2 4 3 1 1 3 2 4 4 4 3 3 3 3 3 3 3 3 4 4 5 5 6 5 5 5 5 6 6 6 5 6 5 6 6 7 6 5 6 6 7 6 6 6
3 3 1 0 0 0 0 2 2 3 2 2 1 4 1 3 4 4 3 4 3 3 2 2 2 4 4 3 3 2 1 2 3 3 3 3 5 3 5 5 6 5 5 5 5 4 4 6 6 6 5 5 5 5 5 6 6 6 5 6 6 4
3 3 2 1 0 0 0 3 1 1 2 0 1 1 4 6 5 5 4 4 3 3 3 2 2 4 3 3 2 1 1 2 3 2 3 3 4 5 3 5 5 5 5 4 4 4 4 5 6 6 6 6 5 5 5 5 6 6 6 6 6 5
3 4 2 1 1 1 1 1 2 3 2 1 1 1 4 6 6 4 5 4 4 3 3 3 3 2 2 2 2 1 1 2 3 3 4 5 3 5 4 4 4 1 3 4 4 5 4 5 5 5 6 6 4 3 4 5 6 6 5 5 6 5
5 5 2 1 1 0 1 0 2 3 3 3 3 1 2 4 5 5 4 4 3 3 3 3 3 3 2 2 1 0 1 3 3 2 3 4 4 4 2 3 5 3 1 3 4 4 5 5 4 5 6 5 5 3 4 5 5 4 5 5 6 6
4 4 3 3 1 2 2 2 2 3 3 4 2 1 3 3 4 4 3 4 4 3 3 3 3 3 2 2 2 1 1 3 3 2 3 3 5 4 2 1 4 3 3 3 3 4 5 4 4 5 6 6 6 4 4 4 4 4 5 5 6 6
4 4 3 4 3 2 2 3 3 2 4 5 3 2 2 5 6 4 5 5 4 4 3 3 3 3 3 2 2 2 2 4 2 1 2 4 5 4 3 3 1 3 3 1 1 3 3 2 4 4 5 5 5 4 4 3 5 4 5 4 5 6
3 4 4 4 2 1 2 3 4 5 5 4 4 1 0 3 4 6 6 5 4 4 3 3 4 3 3 3 3 3 4 4 3 1 3 4 5 5 3 3 3 1 3 3 2 2 3 2 3 3 4 5 5 4 3 5 6 4 4 4 5 6
4 3 4 4 3 1 2 3 2 2 4 5 4 2 3 3 3 3 4 4 4 4 4 4 4 3 3 4 4 3 3 4 3 2 2 3 4 4 1 1 1 0 1 2 2 2 3 2 3 2 1 3 4 5 3 4 8 4 5 5 5 6
3 4 4 5 4 2 2 2 2 3 1 2 3 3 3 3 4 4 4 4 4 4 4 4 3 1 3 4 4 4 3 4 4 2 1 2 2 2 1 2 0 2 0 1 2 2 4 3 3 5 4 3 1 3 2 3 8 4 5 4 6 6
4 4 4 3 3 2 3 2 2 2 2 2 3 2 5 4 4 4 4 4 4 3 4 4 2 2 3 4 5 4 4 3 3 0 2 4 3 3 1 0 1 2 2 1 1 2 4 4 3 4 3 1 1 2 2 2 1 4 3 4 4 6
6 5 4 4 3 4 3 2 2 3 3 2 1 1 0 1 1 2 4 3 2 4 3 4 4 1 1 3 4 5 3 4 2 1 0 2 3 3 1 1 1 1 1 3 2 2 1 3 3 6 6 2 3 3 5 3 8 5 3 5 6 8
6 6 5 5 4 3 1 1 0 0 1 1 1 1 1 3 3 3 2 2 6 4 3 4 4 3 3 4 4 3 4 3 2 3 1 1 2 1 0 0 0 1 1 0 3 1 2 2 2 1 2 4 5 3 0 5 4 5 4 5 6 6
6 5 6 5 5 4 3 3 1 1 2 1 3 2 3 5 4 3 4 3 2 3 4 4 4 4 4 2 3 4 4 2 3 3 1 1 2 1 3 4 1 1 1 1 1 1 2 2 0 0 2 3 3 2 5 5 3 6 5 3 4 5
7 6 6 5 5 4 3 2 4 4 4 4 3 4 3 4 3 3 2 3 3 2 3 4 3 3 3 0 2 4 4 3 1 0 0 1 1 2 1 1 0 2 2 0 0 0 0 2 4 1 1 2 2 2 3 1 4 5 5 2 2 7
6 6 5 5 4 5 5 4 4 4 4 4 4 4 3 4 3 2 3 4 4 4 3 2 3 1 2 1 2 3 2 1 2 1 1 1 1 0 1 2 1 0 1 1 1 2 2 1 0 2 1 2 2 2 0 2 1 1 4 7 7 2
6 6 5 5 5 5 4 4 5 4 4 4 4 5 3 3 3 3 4 4 3 4 3 2 1 0 1 3 3 1 2 3 3 1 1 1 0 0 1 1 3 3 4 4 1 2 1 2 2 1 0 1 2 1 3 1 0 0 2 5 6 9
6 6 5 5 6 5 5 4 4 4 4 5 3 4 2 3 3 4 5 5 4 4 4 3 1 2 3 2 1 1 3 3 3 3 1 1 0 1 1 2 2 2 1 3 1 3 2 2 2 2 1 1 1 2 3 2 1 2 1 2 3 7
7 6 5 6 5 6 5 5 5 5 4 5 5 4 4 5 4 3 5 5 5 6 4 5 3 3 3 3 3 3 4 3 3 2 1 1 0 0 1 2 2 2 2 1 1 3 2 0 1 2 1 1 0 1 0 1 3 2 0 2 4 5
6 6 6 6 6 6 6 6 5 5 5 5 4 4 4 5 5 4 4 5 5 4 5 6 4 4 4 4 4 3 2 3 3 2 1 1 1 1 2 1 2 2 2 2 1 2 1 1 2 2 1 2 2 2 2 2 3 2 2 4 1 5
7 6 7 6 7 7 6 6 6 6 5 4 4 5 5 5 5 4 5 5 4 5 5 3 5 5 5 5 4 3 3 4 3 2 2 2 2 2 1 1 2 2 2 2 2 3 2 1 2 3 2 3 2 2 3 3 2 3 3 3 1 2
9 6 6 6 7 7 7 6 5 6 6 5 5 5 6 5 5 5 5 4 5 6 6 6 5 6 6 5 4 4 4 4 4 3 3 3 3 2 1 1 1 3 3 3 2 3 1 0 3 3 2 2 2 2 3 3 3 2 4 2 3 2
7 6 6 7 6 7 7 6 5 6 6 5 6 6 6 6 5 5 4 4 4 4 5 5 6 6 4 4 4 4 4 4 4 4 2 3 3 2 2 1 2 3 3 2 2 2 1 2 3 2 3 2 1 3 3 3 3 5 3 2 1 3
10 8 8 7 7 8 8 6 6 6 7 6 5 5 6 4 5 4 5 5 5 4 5 5 5 4 4 5 5 4 4 4 4 3 3 3 4 3 3 2 2 2 3 1 0 2 0 2 3 3 2 2 1 3 3 4 3 4 5 3 2 1
8 7 8 9 9 8 7 6 7 6 6 6 6 6 6 5 5 5 5 5 5 6 4 4 5 4 5 4 4 4 4 4 4 4 3 3 4 4 3 3 3 2 4 1 1 2 0 2 3 3 2 1 1 4 4 3 3 3 4 3 1 2
Wind_Direction
190 194 211 209 216 222 239 196 180 190 212 212 211 217 232 264 254 295 311 321 333 356 299 271 262 260 259 287 302 306 298 304 299 295 299 306 310 315 317 316 311 309 302 301 301 303 310 313 308 306 297 278 268 266 261 268 264 263 268 268 262 231
184 199 210 205 203 224 235 219 184 196 219 241 238 237 276 264 284 235 349 349 17 350 278 264 262 285 296 300 293 328 346 339 312 307 300 302 307 317 323 317 308 308 320 318 316 312 316 311 312 313 298 276 262 253 258 260 263 265 276 273 259 243
186 197 201 206 206 222 224 236 190 209 215 225 245 261 234 288 14 301 177 23 24 354 7 351 319 317 340 351 356 20 2 13 9 343 322 316 323 328 321 327 340 344 349 346 339 319 309 301 309 309 303 311 293 272 277 280 281 272 264 261 262 250
184 192 196 200 206 214 218 223 187 211 214 210 253 274 273 262 86 46 68 66 27 19 29 10 8 353 12 357 327 15 0 11 11 2 356 341 337 322 329 344 347 359 353 349 339 332 320 310 302 316 329 318 301 292 285 277 269 260 259 264 257 257
176 147 171 207 240 175 202 205 203 214 208 170 202 214 219 172 71 70 75 77 63 30 34 16 341 14 4 3 327 358 18 359 354 29 355 340 344 327 345 360 352 354 353 351 351 341 337 330 338 335 337 324 313 297 291 287 274 270 275 268 277 288
153 161 192 196 191 237 157 198 216 207 168 182 181 171 164 166 192 127 123 105 69 31 25 19 2 8 7 354 341 335 9 25 14 35 13 2 6 344 357 353 0 359 340 355 349 345 335 329 332 335 329 325 324 335 329 320 298 273 285 305 302 303
166 163 162 299 244 130 190 150 204 157 144 153 150 150 167 186 174 188 198 108 81 43 26 30 4 358 11 354 345 336 357 40 29 19 4 25 5 352 5 345 10 354 342 358 344 345 337 335 334 339 333 311 331 341 360 347 332 339 339 322 311 315
102 134 151 196 230 147 252 151 226 71 131 170 157 144 154 169 153 207 225 110 103 109 72 39 1 5 352 360 350 349 341 26 31 14 356 41 11 359 10 348 354 346 352 348 346 340 338 336 336 346 333 329 351 355 352 340 314 314 331 324 329 322
152 207 188 92 4 326 59 183 115 164 164 189 167 132 153 159 184 224 206 106 94 61 47 47 10 42 351 360 356 357 352 348 30 20 28 15 28 2 5 341 337 335 338 351 344 334 338 338 340 339 324 341 351 357 347 339 339 335 330 329 333 324
140 228 148 102 323 353 147 249 159 173 205 156 197 157 154 179 175 240 105 108 115 131 117 69 15 49 30 345 6 350 15 352 4 14 40 16 14 2 354 341 339 330 336 345 340 335 344 332 336 333 330 355 355 342 329 338 333 330 324 333 334 323
175 204 97 73 320 271 33 181 180 180 202 202 192 193 158 173 163 227 139 123 125 127 125 77 42 38 33 11 7 10 16 333 12 356 26 27 3 350 346 339 330 313 332 341 330 343 338 330 328 329 334 359 345 341 346 343 338 329 327 326 344 337
173 152 141 85 36 329 15 195 179 164 221 222 151 206 180 169 154 210 180 143 97 104 106 118 82 44 51 31 22 22 359 356 360 349 5 30 358 342 352 334 321 312 323 343 337 354 330 344 328 328 346 357 345 352 349 344 340 335 337 350 346 349
164 129 124 129 81 258 169 242 174 242 255 253 167 111 173 122 137 191 187 115 125 157 143 143 117 73 70 65 66 37 358 333 338 347 349 358 8 7 355 343 324 321 330 345 349 352 346 344 345 329 353 349 352 349 343 348 354 360 359 354 353 352
181 159 168 203 148 313 313 170 132 205 227 217 171 144 106 130 162 182 168 147 157 173 177 175 126 94 96 94 87 57 333 329 318 319 335 360 6 0 343 343 325 329 328 339 344 344 347 349 332 328 352 342 353 342 342 356 359 357 356 3 347 346
184 182 185 201 199 59 265 74 99 309 270 210 40 89 144 154 166 170 159 159 180 185 175 179 146 121 116 115 117 101 317 299 290 313 346 345 4 334 351 341 329 335 323 331 346 357 2 345 334 330 340 347 347 341 353 354 352 1 2 348 359 360
170 191 191 196 253 166 236 154 222 217 250 243 169 136 161 152 165 176 160 177 198 192 183 162 153 133 119 149 145 124 279 288 310 338 344 336 344 333 339 344 323 3 344 334 0 355 3 351 335 328 341 343 344 346 345 355 358 355 352 348 356 357
166 191 193 216 158 325 235 167 197 263 262 229 157 90 112 150 160 171 173 192 207 203 189 168 161 159 123 138 164 223 277 286 295 358 334 316 316 307 7 346 318 330 21 340 1 1 356 352 339 337 339 339 344 347 347 354 355 351 350 4 346 348
175 183 184 185 199 237 236 235 267 283 279 285 292 165 124 152 173 183 177 202 219 205 186 177 184 172 149 161 163 225 290 284 296 350 327 311 298 307 20 51 326 313 359 20 9 14 355 340 347 344 339 336 332 351 331 342 4 355 6 358 349 345
162 185 212 193 222 227 307 310 301 338 327 306 320 11 136 153 176 178 186 205 208 208 194 194 209 184 165 164 184 248 280 277 293 316 342 317 310 318 354 346 16 308 344 348 43 18 349 322 352 341 335 325 324 336 326 330 19 350 359 352 339 341
182 178 192 203 250 303 351 327 309 334 322 292 307 329 2 177 165 172 187 194 199 194 211 210 226 196 174 185 197 227 253 279 290 312 337 317 304 313 344 314 337 288 5 337 356 13 345 346 346 350 331 316 318 317 2 4 10 353 351 347 342 339
204 173 172 199 231 205 275 308 296 262 253 257 238 194 172 209 181 198 193 197 187 202 211 224 239 182 177 208 204 224 250 281 292 271 321 285 272 287 292 232 240 331 59 12 338 338 344 312 30 335 292 307 319 321 341 30 356 355 350 338 342 347
191 186 188 189 198 168 181 187 189 224 211 288 261 157 176 228 205 215 208 201 200 202 216 230 256 217 189 197 213 233 245 257 273 307 286 282 296 298 6 4 9 28 349 58 350 330 336 7 19 357 339 332 303 319 316 44 355 336 342 346 340 337
185 187 210 208 174 216 233 222 153 215 172 247 264 222 167 199 207 215 222 215 212 212 221 256 245 238 190 191 203 205 232 240 255 263 343 341 332 319 340 24 110 118 346 324 330 319 1 56 5 318 297 16 331 4 317 351 282 319 329 324 323 332
193 195 213 220 201 222 228 228 235 188 221 177 218 333 335 349 311 278 269 264 290 248 226 243 247 212 226 192 191 206 226 227 277 236 123 317 300 308 344 6 71 109 127 1 350 308 358 33 49 7 2 346 297 14 337 347 349 311 312 324 344 337
189 198 206 221 225 192 164 79 3 355 1 354 358 23 3 310 297 263 237 258 243 243 219 234 244 220 200 186 204 200 211 220 246 287 31 291 267 262 238 230 179 102 77 173 333 295 310 12 13 88 62 5 351 14 55 285 334 292 330 334 332 335
189 196 203 216 217 200 191 176 186 253 293 243 247 291 251 238 245 210 207 239 261 218 212 221 238 243 237 167 183 206 216 223 255 311 13 228 255 295 5 350 314 340 321 217 191 90 336 315 358 296 128 147 167 202 301 313 22 320 319 281 314 323
185 197 203 209 202 194 175 179 193 201 208 204 206 256 230 233 215 242 227 222 213 259 223 230 255 236 246 213 176 204 208 242 305 298 199 119 358 14 305 315 312 19 330 328 105 313 248 265 344 329 52 154 199 210 179 330 325 305 330 312 320 325
189 192 200 183 192 186 191 198 209 221 219 221 206 241 259 276 243 232 202 235 241 261 271 254 276 316 258 190 171 219 230 130 90 152 147 151 74 250 21 351 4 287 326 44 306 194 242 240 170 282 304 354 333 310 306 208 205 219 268 314 321 271
186 190 196 184 183 202 188 192 208 213 243 239 223 238 250 264 242 226 225 248 245 243 249 276 292 222 203 182 200 217 132 112 129 166 140 159 199 113 92 337 345 351 338 335 304 202 149 257 196 237 9 329 330 312 313 300 346 93 307 315 303 328
196 192 192 191 188 199 198 199 211 225 226 255 255 266 269 276 251 236 229 252 257 271 265 278 281 221 200 231 181 156 149 154 170 173 169 176 186 39 352 341 307 291 313 350 326 171 196 233 216 226 157 177 27 328 2 355 359 349 306 209 272 317
200 193 189 192 186 202 204 204 218 225 224 236 251 254 280 296 284 267 241 251 252 243 257 251 235 257 253 222 198 182 182 186 175 174 154 179 176 249 265 274 297 313 345 330 275 228 244 264 130 142 148 159 161 166 246 252 288 303 244 293 330 310
202 201 197 193 186 201 201 214 221 223 227 227 232 243 246 249 260 251 240 253 257 256 251 245 235 245 255 246 225 221 228 178 173 160 193 188 203 207 248 294 324 331 294 292 210 250 238 14 114 140 240 224 213 188 205 211 240 228 218 265 237 290
208 207 200 193 192 200 201 214 218 229 232 233 238 243 247 241 238 232 238 249 251 240 242 238 241 236 257 243 233 225 195 193 200 209 206 179 212 219 235 336 316 306 271 267 250 222 266 4 182 149 216 226 214 241 295 268 230 244 238 219 218 304
209 200 203 198 200 203 210 211 213 219 226 227 239 242 245 231 238 227 215 222 229 218 211 213 224 232 233 232 225 215 199 203 199 201 198 192 200 220 202 248 261 274 283 277 246 221 253 75 182 196 185 216 254 281 298 278 279 269 264 320 329 285
204 208 202 207 207 211 217 218 216 219 224 225 235 240 242 236 237 235 231 214 220 226 220 233 220 229 223 204 206 203 202 196 203 218 203 189 211 215 223 213 251 249 272 286 252 243 358 150 148 198 227 227 278 319 301 289 276 277 259 260 233 267
202 202 201 205 209 210 217 215 216 220 226 231 239 241 247 254 254 243 245 222 231 219 216 226 239 241 228 193 199 207 201 201 204 205 191 195 211 219 232 243 286 287 295 295 260 299 272 158 183 216 231 245 5 310 291 294 271 257 272 266 250 237
211 205 205 206 207 208 214 212 224 221 227 232 235 234 235 240 241 242 237 240 232 236 237 230 239 220 225 221 208 196 199 211 205 202 200 205 213 222 220 221 236 269 283 292 184 263 194 178 211 222 255 290 286 273 290 292 298 280 280 296 287 286